{"data":{"norad_id":54134,"intl_designator":"2022-138X","name":"ONEWEB-0516","alt_names":[],"object_type":"PAYLOAD","status":"ACTIVE","operator":null,"country":"UK","launch_date":"2022-10-22","launch_site_code":"SRILR","launch_vehicle":null,"mission":null,"orbit_class":"UNKNOWN","rcs_meters":null,"size_class":null,"mass_kg":null,"dimensions":null,"purposes":["comms"],"wikipedia_slug":null,"has_3d_model":false,"image_url":null,"decayed_at":null,"tle_current":{"epoch":"2026-09-20T01:40:34.341888Z","epoch_age_seconds":63003,"freshness":"FRESH","line1":"1 54134U 22138X   26263.06984192  .00000039  00000+0  65370-4 0  9997","line2":"2 54134  87.9103 286.0663 0001785  89.6024 270.5313 13.19726130189347","mean_motion":13.1972613,"eccentricity":0.0001785,"inclination_deg":87.9103,"raan_deg":286.0663,"arg_perigee_deg":89.6024,"mean_anomaly_deg":270.5313,"bstar":6.537e-5,"rev_number":18934,"period_min":109.1135476722,"perigee_km":1184.4160775985,"apogee_km":1187.1163910531,"semimajor_km":7563.9032343258,"source":"CELESTRAK","updated_at":"2026-09-20T09:00:44.719510Z"}}}